1504944000.65,65395,14.69,73418.0,10.49,-19.61,-18.69,0,*44
1504944001.88,65396,14.69,73406.3,10.53,-19.95,-19.13,0,*4B
1504944003.1,65397,14.69,73406.8,10.55,-19.31,-18.25,0,*46
1504944004.33,65398,14.69,73410.3,10.57,-19.95,-19.17,0,*45
1504944005.58,65399,14.69,73416.8,10.57,-20.25,-19.23,0,*42
1504944006.81,65400,14.69,73392.0,10.57,-20.43,-19.37,0,*40
1504944008.07,65401,14.69,73404.8,10.59,-21.83,-20.99,0,*4C
1504944009.27,65402,14.69,73426.0,10.59,-22.07,-20.89,0,*41
1504944010.53,65403,14.69,73400.0,10.59,-20.83,-19.31,0,*47
1504944011.78,65404,14.69,73394.5,10.59,-21.83,-20.19,0,*41
1504944013.03,65405,14.69,73394.8,10.59,-20.49,-18.55,0,*44
1504944014.28,65406,14.69,73398.3,10.61,-19.99,-17.93,0,*4E
1504944015.5,65407,14.69,73404.5,10.61,-20.73,-18.45,0,*45
1504944016.75,65408,14.69,73434.5,10.61,-20.83,-18.21,0,*47
1504944018.0,65409,14.69,73486.3,10.63,-19.85,-16.69,0,*4A
1504944019.23,65410,14.69,73416.3,10.63,-23.19,-20.59,0,*48
1504944020.47,65411,14.69,73404.5,10.61,-24.31,-21.13,0,*49
1504944021.72,65412,14.69,73390.5,10.59,-24.15,-21.27,0,*40
1504944022.95,65413,14.69,73374.5,10.59,-24.31,-21.57,0,*40
1504944024.18,65414,14.69,73408.8,10.55,-24.21,-21.09,0,*41
1504944025.44,65415,14.69,73388.8,10.57,-23.23,-20.25,0,*48
1504944026.67,65416,14.69,73384.0,10.55,-23.23,-19.99,0,*44
1504944027.92,65417,14.69,73392.0,10.53,-23.99,-20.73,0,*4C
1504944029.17,65418,14.69,73390.3,10.51,-24.15,-20.79,0,*48
1504944030.43,65419,14.69,73396.0,10.51,-22.73,-19.27,0,*4E
1504944031.65,65420,14.69,73404.3,10.51,-21.97,-18.49,0,*44
1504944032.88,65421,14.69,73412.0,10.51,-21.13,-17.63,0,*4E
1504944034.13,65422,14.69,73420.3,10.53,-20.79,-17.83,0,*4C
1504944035.36,65423,14.69,73424.0,10.53,-21.13,-18.45,0,*45
1504944036.59,65424,14.69,73424.0,10.55,-21.87,-19.37,0,*4D
1504944037.85,65425,14.69,73434.3,10.57,-22.17,-19.99,0,*40
1504944039.08,65426,14.69,73428.8,10.57,-21.17,-18.69,0,*4E
1504944040.31,65427,14.69,73440.0,10.55,-19.51,-17.63,0,*41
1504944041.56,65428,14.69,73450.3,10.57,-17.07,-15.99,0,*46
1504944042.81,65429,14.69,73464.5,10.61,-16.97,-15.81,0,*43
1504944044.05,65430,14.69,73412.0,10.63,-22.17,-21.13,0,*4A
1504944045.27,65431,14.69,73404.0,10.59,-21.43,-19.85,0,*44
1504944046.53,65432,14.69,73408.3,10.59,-23.49,-21.27,0,*4C
1504944047.76,65433,14.69,73354.5,10.55,-23.95,-21.47,0,*46
1504944049.04,65434,14.69,73404.8,10.57,-21.83,-19.61,0,*49
1504944050.25,65435,14.69,73400.8,10.55,-22.27,-20.25,0,*4D
1504944051.5,65436,14.69,73376.3,10.57,-23.09,-21.33,0,*47
1504944052.76,65437,14.69,73360.5,10.55,-23.29,-21.83,0,*4D
1504944054.03,65438,14.69,73410.3,10.53,-23.19,-21.53,0,*4A
1504944055.27,65439,14.69,73444.0,10.55,-22.87,-21.23,0,*4C
1504944056.5,65440,14.69,73352.8,10.51,-27.61,-24.97,0,*41
1504944057.76,65441,14.69,73356.5,10.47,-25.03,-22.77,0,*49
1504944058.99,65442,14.69,73356.5,10.41,-25.09,-22.27,0,*43
1504944060.28,65443,14.69,73378.0,10.41,-24.41,-21.23,0,*48
1504944061.5,65444,14.69,73380.3,10.41,-25.19,-21.43,0,*45
1504944062.78,65445,14.69,73378.3,10.37,-25.29,-20.99,0,*40
1504944064.0,65446,14.69,73382.3,10.37,-25.09,-19.75,0,*49
1504944065.23,65447,14.69,73406.0,10.33,-24.67,-18.45,0,*47
1504944066.49,65448,14.69,73412.0,10.33,-22.77,-16.17,0,*46
1504944067.73,65449,14.69,73422.3,10.31,-21.43,-13.87,0,*4D
1504944068.98,65450,14.69,73446.8,10.33,-20.99,-11.73,0,*48
1504944070.18,65451,14.69,73440.8,10.33,-18.99,-8.17,0,*78
1504944071.41,65452,14.69,73438.3,10.35,-19.95,-7.87,0,*76
1504944072.66,65453,14.69,73432.8,10.39,-18.01,-5.11,0,*7A
1504944073.89,65454,14.69,73432.3,10.39,-16.59,-3.43,0,*7F
1504944075.14,65455,14.69,73434.8,10.47,-15.35,-2.55,0,*78
1504944076.4,65456,14.69,73440.8,10.49,-14.83,-2.23,0,*78
1504944077.63,65457,14.69,73446.0,10.53,-15.21,-3.23,0,*7A
1504944078.9,65458,14.69,73428.5,10.53,-17.45,-5.73,0,*76
1504944080.14,65459,14.69,73440.8,10.51,-19.27,-7.83,0,*72
1504944081.39,65460,14.69,73444.0,10.53,-17.97,-6.77,0,*75
1504944082.62,65461,14.69,73448.8,10.55,-18.83,-7.61,0,*7E
1504944083.82,65462,14.69,73424.8,10.55,-19.51,-8.45,0,*7A
1504944085.07,65463,14.69,73394.0,10.53,-18.17,-7.43,0,*77
1504944086.32,65464,14.69,73380.5,10.51,-16.27,-6.27,0,*7C
1504944087.57,65465,14.69,73366.0,10.53,-13.01,-3.75,0,*7C
1504944088.82,65466,14.69,73360.3,10.53,-10.67,-2.39,0,*75
1504944090.04,65467,14.69,73378.0,10.55,-9.71,-2.55,0,*47
1504944091.29,65468,14.69,73400.8,10.57,-6.93,-1.21,0,*49
1504944092.51,65469,14.69,73408.3,10.57,-4.21,-0.07,0,*46
1504944093.75,65470,14.69,73390.0,10.57,-5.35,-2.07,0,*48
1504944094.97,65471,14.69,73372.3,10.55,-5.51,-2.71,0,*48
1504944096.17,65472,14.69,73394.3,10.55,-6.13,-3.07,0,*4E
1504944097.37,65473,14.69,73404.8,10.51,-5.51,-2.31,0,*4A
1504944098.59,65474,14.69,73378.5,10.47,-5.69,-2.15,0,*47
1504944099.8,65475,14.69,73390.8,10.45,-7.49,-3.07,0,*46
1504944101.05,65476,14.69,73416.5,10.41,-7.95,-2.23,0,*47
1504944102.29,65477,14.69,73388.8,10.41,-9.97,-2.51,0,*4F
1504944103.54,65478,14.69,73414.8,10.41,-12.75,-3.75,0,*71
1504944104.81,65479,14.69,73412.0,10.41,-11.51,-1.09,0,*7C
1504944106.03,65480,14.69,73356.8,10.45,-13.23,-2.27,0,*76
1504944107.32,65481,14.69,73358.3,10.49,-13.97,-2.51,0,*75
1504944108.52,65482,14.69,73396.3,10.51,-15.99,-3.55,0,*72
1504944109.75,65483,14.69,73432.5,10.53,-16.97,-3.91,0,*74
1504944111.0,65484,14.69,73438.8,10.57,-17.41,-4.21,0,*71
1504944112.28,65485,14.69,73428.8,10.57,-19.23,-5.77,0,*78
1504944113.5,65486,14.69,73412.0,10.57,-20.69,-6.31,0,*7E
1504944114.75,65487,14.69,73324.0,10.55,-23.85,-9.53,0,*77
1504944115.95,65488,14.69,73334.8,10.51,-20.39,-6.55,0,*71
1504944117.19,65489,14.69,73334.8,10.51,-20.35,-6.27,0,*79
1504944118.44,65490,14.69,73350.5,10.53,-18.99,-5.93,0,*72
1504944119.71,65491,14.69,73270.5,10.53,-20.15,-7.65,0,*77
1504944120.94,65492,14.69,73306.3,10.51,-23.95,-12.43,0,*4D
1504944122.15,65493,14.69,73346.5,10.47,-20.73,-10.89,0,*44
1504944123.4,65494,14.69,73350.3,10.47,-17.07,-9.37,0,*79
1504944124.64,65495,14.69,73348.5,10.49,-17.49,-10.31,0,*42
1504944125.87,65496,14.69,73398.5,10.51,-17.45,-10.45,0,*47
1504944127.13,65497,14.69,73380.5,10.53,-18.73,-11.63,0,*4B
1504944128.35,65498,14.69,73326.5,10.57,-20.43,-13.43,0,*48
1504944129.58,65499,14.69,73308.3,10.61,-21.93,-14.61,0,*47
1504944130.79,65500,14.69,73320.3,10.55,-24.05,-16.59,0,*42
1504944132.05,65501,14.69,73334.5,10.53,-24.87,-16.79,0,*4D
1504944133.33,65502,14.69,73352.5,10.53,-23.95,-15.39,0,*4D
1504944134.59,65503,14.69,73360.3,10.49,-24.15,-14.65,0,*40
1504944135.82,65504,14.69,73376.3,10.47,-23.23,-12.89,0,*4F
1504944137.08,65505,14.69,73386.0,10.47,-21.97,-10.75,0,*42
1504944138.33,65506,14.69,73376.5,10.45,-19.95,-7.73,0,*7A
1504944139.55,65507,14.69,73328.5,10.49,-18.65,-6.01,0,*7D
1504944140.78,65508,14.69,73328.5,10.49,-18.83,-5.97,0,*76
1504944141.97,65509,14.69,73362.5,10.47,-14.89,-2.27,0,*73
1504944143.22,65510,14.69,73372.3,10.47,-11.97,-0.23,0,*47
1504944144.46,65511,14.69,73398.8,10.49,-8.37,2.05,0,*61
1504944145.71,65512,14.69,73388.0,10.53,-6.63,2.21,0,*60
1504944146.92,65513,14.69,73408.0,10.59,-5.61,1.83,0,*61
1504944148.15,65514,14.69,73418.3,10.63,-5.27,0.83,0,*5C
1504944149.4,65515,14.69,73410.8,10.71,-6.13,-1.05,0,*48
1504944150.68,65516,14.69,73362.0,10.75,-10.41,-5.23,0,*7F
1504944151.93,65517,14.69,73268.8,10.75,-18.83,-13.33,0,*4E
1504944153.2,65518,14.69,73294.8,10.71,-17.63,-11.55,0,*46
1504944154.46,65519,14.69,73284.3,10.71,-18.25,-11.55,0,*4A
1504944155.65,65520,14.69,73306.3,10.67,-17.69,-10.23,0,*40
1504944156.88,65521,14.69,73320.0,10.67,-18.79,-11.07,0,*48
1504944158.11,65522,14.69,73324.8,10.67,-18.31,-10.05,0,*44
1504944159.35,65523,14.69,73332.0,10.67,-15.89,-6.93,0,*73
1504944160.57,65524,14.69,73342.3,10.69,-12.79,-4.33,0,*7A
1504944161.83,65525,14.69,73334.3,10.75,-9.41,-0.97,0,*7D
1504944163.03,65526,14.69,73356.3,10.77,-6.19,1.41,0,*69
1504944164.26,65527,14.69,73366.5,10.83,-4.89,1.79,0,*63
1504944165.47,65528,14.69,73364.0,10.89,-3.87,1.85,0,*6C
1504944166.7,65529,14.69,73378.0,10.93,-2.67,2.39,0,*6D
1504944167.87,65530,14.69,73352.3,10.93,-0.57,3.55,0,*5F
1504944169.1,65531,14.69,73308.0,10.97,-1.47,1.63,0,*6D
1504944170.33,65532,14.69,73238.8,10.95,-1.63,0.59,0,*52
1504944171.56,65533,14.69,73280.0,10.91,-2.27,-0.89,0,*74
1504944172.74,65534,14.69,73308.3,10.85,-1.59,-0.49,0,*70
1504944173.99,65535,14.69,73362.8,10.83,2.21,3.33,0,*45
1504944175.19,0,14.69,73390.3,10.83,2.73,3.59,0,*4E
1504944176.42,1,14.69,73424.0,10.83,1.55,2.55,0,*45
1504944177.62,2,14.69,73398.5,10.85,2.21,3.03,0,*42
1504944178.82,3,14.69,73354.3,10.85,2.09,2.85,0,*46
1504944180.04,4,14.69,73354.5,10.83,1.43,1.71,0,*42
1504944181.26,5,14.69,73388.3,10.83,2.39,2.55,0,*48
1504944182.48,6,14.69,73306.8,10.83,-1.75,-1.99,0,*43
1504944183.67,7,14.69,73362.8,10.75,-2.15,-2.23,0,*4C
1504944184.87,8,14.69,73358.8,10.71,-3.39,-3.27,0,*4D
1504944186.06,9,14.69,73324.5,10.63,-4.13,-3.43,0,*42
1504944187.29,10,14.69,73392.5,10.59,-7.35,-4.81,0,*7D
1504944188.5,11,14.69,73320.8,10.57,-10.45,-6.35,0,*4E
1504944189.7,12,14.69,73346.0,10.55,-10.63,-5.39,0,*44
1504944190.92,13,14.69,73320.0,10.55,-14.19,-8.07,0,*4C
1504944192.16,14,14.69,73270.5,10.55,-18.55,-11.97,0,*7E
1504944193.35,15,14.69,73330.0,10.51,-19.47,-12.93,0,*7E
1504944194.56,16,14.75,73296.0,10.51,-20.93,-15.85,0,*7E
1504944195.77,17,14.69,73280.0,10.47,-22.03,-17.79,0,*72
1504944196.98,18,14.69,73328.8,10.39,-25.45,-22.11,0,*79
1504944198.22,19,14.69,73332.8,10.35,-23.59,-20.19,0,*75
1504944199.43,20,14.69,73350.5,10.35,-21.13,-17.49,0,*72
1504944200.67,21,14.69,73380.0,10.39,-19.31,-15.85,0,*76
1504944201.88,22,14.69,73364.0,10.41,-20.29,-16.75,0,*75
1504944203.14,23,14.69,73358.0,10.45,-20.83,-17.55,0,*73
1504944204.35,24,14.69,73366.3,10.47,-24.87,-21.63,0,*76
1504944205.59,25,14.69,73390.0,10.45,-21.33,-17.83,0,*74
1504944206.86,26,14.69,73392.0,10.49,-20.49,-17.21,0,*7F
1504944208.07,27,14.69,73360.8,10.51,-19.91,-17.03,0,*78
1504944209.3,28,14.69,73354.8,10.57,-21.63,-19.31,0,*78
1504944210.51,29,14.69,73366.0,10.55,-24.67,-22.41,0,*75
1504944211.74,30,14.69,73416.3,10.53,-23.59,-21.57,0,*75
1504944212.96,31,14.69,73388.8,10.55,-21.67,-20.09,0,*77
1504944214.18,32,14.69,73388.5,10.55,-21.53,-20.59,0,*76
1504944215.39,33,14.69,73400.3,10.59,-20.05,-19.31,0,*7D
1504944216.63,34,14.69,73404.3,10.61,-19.27,-18.65,0,*7B
1504944217.83,35,14.69,73404.3,10.63,-19.85,-19.51,0,*76
1504944219.03,36,14.69,73396.0,10.67,-20.09,-19.81,0,*72
1504944220.3,37,14.69,73402.0,10.71,-21.03,-20.83,0,*77
1504944221.5,38,14.69,73404.8,10.69,-21.63,-21.57,0,*7F
1504944222.74,39,14.69,73406.5,10.71,-20.89,-21.83,0,*7B
1504944223.97,40,14.69,73402.3,10.71,-20.99,-23.89,0,*7C
1504944225.18,41,14.69,73368.8,10.63,-19.91,-23.33,0,*7D
1504944226.4,42,14.69,73348.0,10.59,-14.83,-18.49,0,*7C
1504944227.62,43,14.69,73350.3,10.55,-11.45,-14.97,0,*71
1504944228.85,44,14.69,73344.0,10.49,-9.45,-12.97,0,*44
1504944230.06,45,14.69,73324.5,10.41,-9.05,-14.33,0,*41
1504944231.29,46,14.75,73324.3,10.35,-12.75,-18.99,0,*70
1504944232.53,47,14.69,73300.0,10.29,-13.79,-20.79,0,*74
1504944233.76,48,14.69,73288.5,10.25,-12.71,-18.35,0,*7D
1504944234.99,49,14.69,73288.8,10.23,-11.33,-13.47,0,*71
1504944236.19,50,14.69,73290.3,10.17,-8.41,-9.49,0,*76
1504944237.4,51,14.69,73296.0,10.21,-6.47,-8.07,0,*71
1504944238.6,52,14.69,73336.8,10.17,-7.27,-9.89,0,*77
1504944239.83,53,14.69,73332.5,10.17,-8.51,-11.37,0,*44
1504944241.04,54,14.69,73336.8,10.17,-8.11,-10.49,0,*4F
1504944242.23,55,14.75,73342.8,10.13,-8.45,-10.45,0,*47
1504944243.44,56,14.69,73350.8,10.13,-8.85,-10.63,0,*4C
1504944244.66,57,14.69,73370.8,10.11,-8.89,-10.53,0,*40
1504944245.88,58,14.69,73362.0,10.11,-10.93,-12.03,0,*7A
1504944247.11,59,14.75,73352.8,10.11,-9.45,-9.23,0,*70
1504944248.35,60,14.69,73374.8,10.13,-10.63,-9.37,0,*41
1504944249.55,61,14.69,73384.0,10.17,-13.33,-10.85,0,*73
1504944250.79,62,14.69,73392.0,10.23,-17.83,-14.01,0,*70
1504944252.03,63,14.69,73402.5,10.23,-17.07,-12.47,0,*79
1504944253.25,64,14.69,73376.3,10.29,-17.03,-12.97,0,*7D
1504944254.48,65,14.69,73358.0,10.31,-18.17,-14.05,0,*72
1504944255.69,66,14.69,73348.5,10.33,-17.21,-13.11,0,*7B
1504944256.93,67,14.69,73354.5,10.37,-18.21,-14.05,0,*73
1504944258.15,68,14.69,73338.5,10.39,-19.17,-14.97,0,*7D
1504944259.42,69,14.75,73364.8,10.45,-19.23,-14.47,0,*7D
1504944260.66,70,14.75,73358.3,10.47,-19.31,-13.83,0,*7B
1504944261.9,71,14.69,73348.0,10.51,-20.99,-14.51,0,*7D
1504944263.11,72,14.69,73344.3,10.51,-22.41,-14.97,0,*73
1504944264.35,73,14.75,73334.0,10.53,-21.39,-13.29,0,*7E
1504944265.53,74,14.69,73330.3,10.51,-22.83,-14.61,0,*72
1504944266.77,75,14.69,73346.8,10.51,-21.57,-12.53,0,*7E
1504944267.98,76,14.69,73370.5,10.47,-22.03,-12.61,0,*79
1504944269.21,77,14.69,73410.0,10.45,-20.73,-9.41,0,*47
1504944270.44,78,14.69,73376.0,10.45,-18.89,-6.59,0,*40
1504944271.67,79,14.69,73388.0,10.49,-18.79,-5.65,0,*4E
1504944272.85,80,14.75,73420.3,10.51,-15.67,-2.43,0,*40
1504944274.09,81,14.69,73428.0,10.53,-13.33,-0.85,0,*7C
1504944275.3,82,14.69,73342.5,10.57,-16.45,-4.65,0,*45
1504944276.51,83,14.69,73396.5,10.55,-13.01,-2.15,0,*42
1504944277.72,84,14.75,73390.3,10.57,-15.01,-3.23,0,*45
1504944278.95,85,14.69,73360.3,10.57,-18.73,-5.93,0,*41
1504944280.17,86,14.69,73344.3,10.57,-14.15,-1.79,0,*4E
1504944281.4,87,14.69,73354.0,10.57,-15.57,-3.79,0,*4A
1504944282.6,88,14.69,73334.5,10.57,-17.49,-5.35,0,*46
1504944283.78,89,14.75,73308.5,10.55,-16.37,-3.11,0,*4D
1504944284.97,90,14.69,73294.5,10.51,-15.53,-2.39,0,*4B
1504944286.16,91,14.69,73320.3,10.53,-10.93,1.01,0,*64
1504944287.41,92,14.69,73324.5,10.53,-11.81,0.51,0,*51
1504944288.65,93,14.69,73326.3,10.53,-11.55,0.59,0,*51
1504944289.85,94,14.69,73334.0,10.55,-11.77,0.01,0,*6D
1504944291.02,95,14.69,73338.0,10.55,-13.47,-2.43,0,*44
1504944292.22,96,14.69,73312.5,10.55,-13.33,-3.23,0,*43
1504944293.45,97,14.69,73318.0,10.55,-17.07,-7.27,0,*41
1504944294.66,98,14.69,73322.0,10.51,-20.35,-10.89,0,*7D
1504944295.87,99,14.69,73384.5,10.47,-20.15,-11.19,0,*71
1504944297.06,100,14.69,73402.5,10.47,-18.17,-9.93,0,*72
1504944298.29,101,14.69,73344.5,10.49,-15.07,-7.99,0,*75
1504944299.53,102,14.69,73338.0,10.49,-17.63,-11.41,0,*44
1504944300.75,103,14.69,73358.3,10.51,-21.03,-15.67,0,*4F
1504944301.97,104,14.69,73342.8,10.51,-23.65,-18.65,0,*45
1504944303.19,105,14.69,73340.3,10.47,-24.83,-20.29,0,*4F
1504944304.43,106,14.69,73342.0,10.41,-26.39,-22.21,0,*43
1504944305.7,107,14.69,73350.8,10.37,-27.23,-23.69,0,*44
1504944306.96,108,14.69,73356.3,10.31,-27.39,-23.95,0,*45
1504944308.16,109,14.69,73372.5,10.25,-26.55,-23.89,0,*47
1504944309.38,110,14.69,73376.3,10.23,-24.77,-22.37,0,*4F
1504944310.6,111,14.69,73380.0,10.21,-25.75,-23.79,0,*44
1504944311.82,112,14.69,73368.3,10.21,-26.07,-24.21,0,*4B
1504944313.06,113,14.75,73346.0,10.17,-28.59,-27.23,0,*4B
1504944314.33,114,14.69,73352.3,10.11,-29.89,-28.75,0,*4A
1504944315.59,115,14.69,73344.5,10.07,-26.77,-25.91,0,*45
1504944316.79,116,14.75,73346.8,10.05,-27.51,-27.03,0,*48
1504944318.03,117,14.69,73342.3,10.03,-28.63,-28.63,0,*48
1504944319.25,118,14.69,73354.8,9.99,-26.45,-26.29,0,*76
1504944320.49,119,14.75,73384.8,9.95,-23.49,-23.29,0,*77
1504944321.68,120,14.75,73378.5,9.99,-21.13,-20.93,0,*7E
1504944322.93,121,14.75,73390.3,10.03,-20.49,-20.49,0,*4D
1504944324.15,122,14.69,73382.0,10.07,-21.63,-21.77,0,*4F
1504944325.34,123,14.75,73374.3,10.09,-21.47,-21.47,0,*45
1504944326.56,124,14.75,73364.8,10.11,-21.39,-21.39,0,*4B
1504944327.79,125,14.69,73348.8,10.13,-23.59,-23.85,0,*49
1504944329.03,126,14.69,73340.8,10.15,-24.51,-24.67,0,*48
1504944330.26,127,14.69,73342.8,10.15,-25.49,-25.35,0,*47
1504944331.53,128,14.75,73338.0,10.11,-28.43,-28.59,0,*4C
1504944332.8,129,14.69,73342.3,10.07,-28.63,-28.43,0,*43
1504944334.0,130,14.69,73348.5,10.03,-29.07,-28.85,0,*46
1504944335.23,131,14.69,73350.8,9.99,-27.39,-26.55,0,*7C
1504944336.49,132,14.69,73344.8,9.93,-25.81,-24.87,0,*79
1504944337.76,133,14.75,73354.3,9.93,-27.61,-26.81,0,*70
1504944339.02,134,14.69,73358.5,9.93,-25.29,-23.53,0,*73
1504944340.27,135,14.75,73374.0,9.89,-24.25,-22.83,0,*78
1504944341.52,136,14.69,73384.8,9.91,-24.21,-22.47,0,*7E
1504944342.76,137,14.69,73390.5,9.93,-21.97,-20.09,0,*7D
1504944343.96,138,14.69,73388.3,9.99,-20.19,-18.21,0,*7E
1504944345.16,139,14.69,73388.5,10.03,-19.91,-17.87,0,*4D
1504944346.4,140,14.69,73380.5,10.05,-20.53,-18.55,0,*41
1504944347.62,141,14.75,73378.5,10.09,-20.89,-18.93,0,*41
1504944348.84,142,14.69,73374.0,10.13,-23.33,-22.27,0,*4D
1504944350.08,143,14.69,73378.5,10.11,-25.03,-23.39,0,*45
1504944351.33,144,14.69,73366.8,10.11,-25.75,-24.35,0,*48
1504944352.55,145,14.69,73366.5,10.09,-26.39,-25.03,0,*4F
1504944353.8,146,14.69,73364.8,10.07,-26.29,-24.97,0,*4F
1504944354.99,147,14.69,73366.3,10.05,-26.45,-25.19,0,*41
1504944356.22,148,14.69,73376.3,10.03,-26.03,-24.87,0,*4C
1504944357.45,149,14.75,73362.5,10.01,-25.09,-23.95,0,*42
1504944358.65,150,14.75,73370.8,9.99,-25.39,-24.15,0,*7F
1504944359.89,151,14.75,73356.0,10.01,-25.09,-23.69,0,*48
1504944361.09,152,14.75,73358.8,9.99,-25.39,-23.95,0,*72
1504944362.29,153,14.75,73368.8,9.95,-24.47,-22.83,0,*71
1504944363.47,154,14.69,73374.8,9.95,-22.87,-21.09,0,*7D
1504944364.7,155,14.69,73368.0,10.01,-22.57,-20.29,0,*47
1504944365.91,156,14.75,73368.8,10.01,-23.09,-20.69,0,*4A
1504944367.16,157,14.75,73366.5,10.03,-23.85,-21.27,0,*46
1504944368.4,158,14.75,73368.8,10.03,-24.67,-21.97,0,*49
1504944369.61,159,14.69,73378.3,10.03,-25.45,-22.63,0,*41
1504944370.85,160,14.69,73380.0,10.01,-25.03,-22.27,0,*4B
1504944372.1,161,14.69,73376.8,9.99,-24.83,-22.17,0,*79
1504944373.32,162,14.69,73372.0,9.99,-24.61,-22.17,0,*76
1504944374.51,163,14.69,73374.8,9.99,-25.87,-23.43,0,*7E
1504944375.73,164,14.75,73390.0,9.95,-25.29,-22.97,0,*79
1504944376.94,165,14.75,73388.0,9.95,-25.23,-23.19,0,*75
1504944378.18,166,14.69,73394.5,9.93,-24.87,-23.09,0,*7E
1504944379.4,167,14.69,73386.3,9.93,-23.09,-21.43,0,*72
1504944380.58,168,14.69,73384.3,9.95,-23.13,-21.09,0,*7E
1504944381.82,169,14.69,73388.0,9.99,-23.03,-20.83,0,*71
1504944383.01,170,14.69,73384.3,9.99,-22.67,-21.09,0,*79
1504944384.2,171,14.75,73382.5,9.99,-22.37,-21.39,0,*7E
1504944385.42,172,14.75,73392.5,9.95,-23.13,-22.31,0,*7D
1504944386.63,173,14.69,73390.5,9.95,-22.73,-21.93,0,*70
1504944387.87,174,14.69,73390.5,9.95,-20.79,-20.35,0,*72
1504944389.09,175,14.69,73400.0,9.95,-21.27,-21.13,0,*7C
1504944390.32,176,14.69,73406.5,9.95,-19.85,-20.15,0,*7B
1504944391.54,177,14.75,73394.8,9.99,-19.41,-19.75,0,*72
1504944392.8,178,14.69,73384.3,10.01,-19.85,-20.15,0,*40
1504944394.04,179,14.69,73376.8,9.99,-20.49,-22.31,0,*76
1504944395.3,180,14.69,73378.0,10.01,-20.79,-22.77,0,*48
1504944396.54,181,14.69,73398.5,10.01,-20.79,-22.63,0,*4C
1504944397.75,182,14.69,73368.3,10.01,-21.39,-22.67,0,*4E
1504944398.95,183,14.69,73366.8,10.05,-22.93,-24.35,0,*49
1504944400.2,184,14.69,73376.3,10.05,-23.99,-24.71,0,*45
1504944401.45,185,14.69,73380.3,10.03,-24.83,-25.75,0,*4B
1504944402.66,186,14.69,73384.3,10.01,-25.23,-26.07,0,*47
1504944403.91,187,14.75,73390.0,10.03,-23.19,-23.85,0,*44
1504944405.13,188,14.69,73390.3,10.05,-22.63,-23.49,0,*41
1504944406.37,189,14.69,73374.0,10.03,-23.85,-24.67,0,*44
1504944407.6,190,14.69,73380.3,10.03,-24.71,-25.61,0,*47
1504944408.82,191,14.69,73380.8,10.03,-23.75,-24.87,0,*4C
1504944410.04,192,14.69,73384.0,10.03,-23.89,-25.03,0,*41
1504944411.25,193,14.69,73388.8,10.01,-23.59,-24.93,0,*47
1504944412.46,194,14.69,73386.0,10.01,-22.67,-23.89,0,*40
1504944413.68,195,14.69,73400.3,10.05,-22.63,-23.85,0,*4D
1504944414.93,196,14.69,73402.5,10.03,-22.21,-23.03,0,*40
1504944416.17,197,14.69,73404.5,10.05,-21.03,-21.97,0,*4B
1504944417.37,198,14.75,73410.0,10.09,-20.25,-20.93,0,*48
1504944418.56,199,14.69,73410.3,10.13,-20.69,-21.47,0,*42
1504944419.81,200,14.69,73414.5,10.13,-21.67,-22.47,0,*4D
1504944421.0,201,14.69,73406.8,10.17,-20.63,-21.47,0,*4E
1504944422.22,202,14.69,73404.0,10.17,-21.77,-22.73,0,*4D
1504944423.41,203,14.69,73408.8,10.21,-22.37,-23.79,0,*45
1504944424.67,204,14.69,73406.8,10.23,-20.43,-22.47,0,*4D
1504944425.92,205,14.69,73406.5,10.23,-22.53,-25.55,0,*4B
1504944427.13,206,14.75,73402.3,10.21,-19.99,-23.95,0,*4E
1504944428.33,207,14.69,73406.0,10.21,-19.37,-23.59,0,*4B
1504944429.6,208,14.69,73388.0,10.15,-17.45,-21.53,0,*40
1504944430.83,209,14.69,73382.8,10.11,-16.37,-20.93,0,*4C
1504944432.07,210,14.69,73360.3,10.07,-14.33,-19.23,0,*44
1504944433.29,211,14.69,73352.3,9.99,-12.47,-16.69,0,*7E
1504944434.52,212,14.69,73324.5,9.93,-10.75,-14.23,0,*78
1504944435.76,213,14.69,73308.8,9.89,-11.01,-13.87,0,*79
1504944436.99,214,14.69,73300.0,9.89,-15.01,-15.99,0,*73
1504944438.23,215,14.69,73336.8,9.81,-11.97,-11.01,0,*74
1504944439.47,216,14.69,73324.0,9.77,-7.91,-8.03,0,*75
1504944440.7,217,14.69,73310.8,9.71,-5.19,-7.57,0,*7E
1504944441.93,218,14.69,73318.0,9.69,-5.69,-9.75,0,*71
1504944443.14,219,14.69,73302.8,9.63,-6.51,-11.85,0,*44
1504944444.34,220,14.69,73286.8,9.63,-8.67,-14.93,0,*47
1504944445.56,221,14.69,73282.5,9.55,-9.57,-16.65,0,*4A
1504944446.8,222,14.69,73292.5,9.45,-9.23,-17.41,0,*4C
1504944447.98,223,14.69,73304.5,9.43,-10.53,-19.47,0,*7C
1504944449.23,224,14.69,73312.5,9.41,-13.23,-22.47,0,*75
1504944450.44,225,14.69,73318.8,9.39,-15.75,-24.31,0,*79
1504944451.66,226,14.69,73320.0,9.35,-16.83,-24.51,0,*7A
1504944452.88,227,14.69,73324.0,9.33,-18.79,-25.75,0,*71
1504944454.08,228,14.69,73336.3,9.31,-19.07,-24.97,0,*79
1504944455.3,229,14.75,73342.5,9.27,-18.49,-22.67,0,*7D
1504944456.51,230,14.69,73336.8,9.27,-19.75,-22.67,0,*7B
1504944457.72,231,14.69,73342.5,9.25,-16.69,-18.41,0,*77
1504944458.96,232,14.69,73340.3,9.27,-19.95,-20.99,0,*74
1504944460.19,233,14.69,73334.5,9.27,-20.89,-20.89,0,*73
1504944461.45,234,14.69,73334.8,9.27,-17.79,-17.21,0,*79
1504944462.71,235,14.69,73334.0,9.31,-14.75,-13.61,0,*70
1504944463.93,236,14.69,73320.5,9.33,-14.15,-12.57,0,*73
1504944465.18,237,14.69,73334.5,9.35,-12.97,-10.67,0,*79
1504944466.39,238,14.69,73330.8,9.41,-11.41,-8.89,0,*44
1504944467.6,239,14.69,73344.5,9.43,-11.85,-9.67,0,*4E
1504944468.84,240,14.69,73344.8,9.45,-12.47,-11.59,0,*7F
1504944470.09,241,14.69,73360.0,9.45,-11.59,-12.43,0,*7A
1504944471.31,242,14.69,73358.5,9.45,-15.63,-18.11,0,*79
1504944472.51,243,14.69,73352.3,9.43,-15.01,-17.69,0,*7A
1504944473.75,244,14.69,73332.3,9.43,-12.61,-15.21,0,*72
1504944474.99,245,14.69,73320.8,9.45,-11.85,-14.15,0,*7A
1504944476.23,246,14.69,73316.8,9.53,-12.11,-14.23,0,*75
1504944477.44,247,14.69,73326.5,9.55,-11.89,-14.19,0,*79
1504944478.68,248,14.69,73352.3,9.55,-10.79,-14.01,0,*71
1504944479.95,249,14.75,73308.0,9.57,-11.89,-15.43,0,*7B
1504944481.18,250,14.69,73284.0,9.55,-16.17,-19.81,0,*73
1504944482.39,251,14.69,73286.3,9.55,-16.31,-18.65,0,*7D
1504944483.65,252,14.69,73294.5,9.53,-18.93,-20.15,0,*72
1504944484.86,253,14.69,73290.0,9.49,-20.05,-20.69,0,*77
1504944486.07,254,14.69,73294.3,9.49,-22.57,-22.57,0,*7A
1504944487.31,255,14.75,73298.5,9.49,-22.27,-21.97,0,*73
1504944488.57,256,14.69,73280.5,9.49,-23.23,-22.73,0,*7C
1504944489.81,257,14.75,73326.0,9.49,-26.49,-25.97,0,*79
1504944491.08,258,14.69,73314.5,9.45,-23.49,-22.31,0,*74
1504944492.26,259,14.69,73302.3,9.47,-23.89,-22.41,0,*7C
1504944493.46,260,14.69,73300.3,9.43,-26.03,-23.43,0,*76
1504944494.68,261,14.69,73304.3,9.37,-22.53,-19.27,0,*7E
1504944495.94,262,14.69,73328.5,9.35,-18.93,-15.57,0,*71
1504944497.16,263,14.69,73320.0,9.33,-20.39,-16.65,0,*7F
1504944498.37,264,14.69,73312.8,9.33,-21.23,-17.69,0,*7F
1504944499.61,265,14.69,73318.5,9.25,-21.27,-17.79,0,*7C
1504944500.8,266,14.69,73332.3,9.25,-16.59,-13.23,0,*79
1504944502.04,267,14.75,73344.0,9.25,-17.07,-14.01,0,*75
1504944503.25,268,14.69,73352.3,9.27,-19.75,-17.31,0,*73
1504944504.46,269,14.69,73338.8,9.31,-18.83,-17.73,0,*7B
1504944505.7,270,14.69,73338.5,9.31,-23.65,-23.43,0,*77
1504944506.94,271,14.69,73356.0,9.27,-24.31,-23.69,0,*7F
1504944508.15,272,14.69,73346.3,9.31,-23.13,-22.07,0,*75
1504944509.33,273,14.69,73338.0,9.33,-22.67,-21.73,0,*74
1504944510.55,274,14.69,73350.3,9.33,-25.75,-25.23,0,*76